Home > Weather > Eindhoven > Past weeks

Flag for Netherlands Past Weather in Eindhoven, Netherlands — Yesterday and Last 2 Weeks

Now
64 °F

Mostly cloudy.


Feels Like: 64 °F
Forecast: 62 / 70 °F
Wind: 3 mph from South

Location: Eindhoven Airport

Current Time: Jul 28, 2016 at 2:56:24 AM

Latest Report: Jul 28, 2016 at 1:55 AM


Visibility: N/A

Pressure: 30.01 "Hg

Humidity: 88%

Dew Point: 61 °F

Location of EindhovenLocation

Past Weather in Eindhoven — Graph

°F

Eindhoven Temperature Yesterday

Maximum temperature yesterday: 72 °F (at 12:55 PM)
Minimum temperature yesterday: 57 °F (at 5:25 AM)
Average temperature yesterday: 66 °F

High & Low Weather Summary for the Past Weeks

 TemperatureHumidityPressure
High95 °F (Jul 20, 3:55 PM)100% (Jul 13, 1:55 AM)30.30 "Hg (Jul 13, 1:55 AM)
Low48 °F (Jul 14, 4:55 AM)30% (Jul 20, 3:55 PM)29.83 "Hg (Jul 20, 1:55 PM)
Average68 °F75%30.08 "Hg
* Reported Jul 13 1:25 AM — Jul 28 1:25 AM, Eindhoven, Weather by CustomWeather, © 2016

Note: Actual official high and low records may vary slightly from our data, if they occured in-between our weather recording intervals... More about our weather records

Advertising

Eindhoven Weather History for the Previous 24 Hours

Scroll right to see more
 ConditionsComfort  
Time TempWeatherWind HumidityBarometerVisibility
1:25 AM
Thu, Jul 28
64 °FMostly cloudy.3 mph88%30.01 "HgN/A
12:55 AM64 °FOvercast.5 mph88%30.01 "HgN/A
12:25 AM64 °FMostly cloudy.6 mph88%30.01 "HgN/A
11:55 PM
Wed, Jul 27
64 °FOvercast.3 mph88%30.01 "HgN/A
11:25 PM64 °FOvercast.3 mph88%30.01 "HgN/A
10:55 PM64 °FMostly cloudy.5 mph83%30.01 "HgN/A
10:25 PM64 °FMostly cloudy.5 mph88%30.01 "HgN/A
9:55 PM64 °FMostly cloudy.6 mph83%30.01 "HgN/A
9:25 PM66 °FOvercast.8 mph83%30.01 "HgN/A
8:55 PM66 °FMore clouds than sun.6 mph83%30.01 "HgN/A
8:25 PM66 °FOvercast.9 mph83%30.01 "HgN/A
7:55 PM68 °FBroken clouds.10 mph73%30.01 "HgN/A
7:25 PM68 °FMostly cloudy.10 mph73%29.98 "HgN/A
6:55 PM70 °FMostly cloudy.12 mph69%29.98 "HgN/A
6:25 PM70 °FMore clouds than sun.10 mph69%29.98 "HgN/A
5:55 PM72 °FBroken clouds.12 mph65%29.98 "HgN/A
5:25 PM70 °FMostly cloudy.12 mph64%30.01 "HgN/A
4:55 PM70 °FMostly cloudy.12 mph64%30.01 "HgN/A
4:25 PM72 °FMostly cloudy.16 mph61%30.01 "HgN/A
3:55 PM72 °FBroken clouds.13 mph65%30.01 "HgN/A
3:25 PM72 °FScattered clouds.12 mph65%30.01 "HgN/A
2:55 PM70 °FMostly cloudy.13 mph69%30.01 "HgN/A
2:25 PM70 °FMostly cloudy.14 mph69%30.01 "HgN/A
1:55 PM70 °FBroken clouds.14 mph69%30.04 "HgN/A
1:25 PM66 °FBroken clouds.15 mph73%30.04 "HgN/A
12:55 PM72 °FBroken clouds.13 mph65%30.04 "HgN/A
12:25 PM70 °FPartly sunny.13 mph64%30.04 "HgN/A
12:00 PM70 °FCloudy.12 mph64%30.04 "HgN/A
11:55 AM68 °FMostly cloudy.13 mph69%30.04 "HgN/A
11:25 AM68 °FBroken clouds.10 mph69%30.04 "HgN/A
10:55 AM68 °FPassing clouds.12 mph64%30.04 "HgN/A
10:25 AM68 °FPassing clouds.12 mph69%30.04 "HgN/A
9:55 AM66 °FMild.10 mph68%30.04 "HgN/A
9:25 AM64 °FPassing clouds.10 mph73%30.04 "HgN/A
8:55 AM63 °FPassing clouds.13 mph77%30.04 "HgN/A
8:25 AM61 °FCool.8 mph83%30.04 "HgN/A
7:55 AM61 °FCool.8 mph88%30.04 "HgN/A
7:25 AM59 °FPartly sunny.6 mph94%30.04 "HgN/A
6:55 AM57 °FOvercast.6 mph94%30.04 "HgN/A
6:25 AM57 °FPassing clouds.5 mph94%30.04 "HgN/A
5:55 AM57 °FPassing clouds.5 mph94%30.04 "HgN/A
5:25 AM57 °FPassing clouds.5 mph94%30.04 "HgN/A
4:55 AM59 °FPassing clouds.2 mph88%30.07 "HgN/A
4:25 AM61 °FPassing clouds.5 mph88%30.07 "HgN/A
3:55 AM63 °FOvercast.5 mph83%30.07 "HgN/A
3:25 AM63 °FOvercast.5 mph83%30.07 "HgN/A
2:55 AM63 °FPassing clouds.2 mph83%30.09 "HgN/A
2:25 AM64 °FOvercast.5 mph78%30.09 "HgN/A
Weather by CustomWeather, © 2016

See weather overviewHow to use our weather pages